Vorticity
4 5 5 6 5 5 5 5 5 5 4 4 3 5 4 4 3 5 5 6 6 7 8 5 8 7 8 9 9 8 8 9 9 8 6 7 8 7 7 7 12 8 6
5 5 5 5 4 5 5 5 5 3 2 3 5 5 3 3 3 5 5 7 8 10 6 7 7 4 2 0 6 7 6 5 8 10 11 8 6 7 7 7 7 11 7
5 6 6 4 4 4 6 5 4 2 3 3 5 4 2 4 5 6 9 10 8 7 6 4 8 5 8 5 5 5 3 2 8 8 9 12 8 7 7 7 7 9 9
6 5 4 4 5 5 5 4 3 3 3 4 4 3 4 4 6 7 8 7 6 7 6 8 6 8 7 9 8 8 9 12 12 10 8 9 12 9 7 8 8 6 11
5 4 4 5 4 4 4 5 5 4 5 5 4 4 3 5 7 9 8 7 8 8 8 8 7 7 8 9 9 12 11 7 9 9 9 11 13 13 9 6 8 7 7
4 5 5 4 3 3 4 4 6 6 8 6 4 2 3 7 10 9 7 8 11 8 7 9 10 10 8 9 9 8 -0 12 14 6 16 9 5 7 13 7 6 7 7
5 6 5 3 4 4 3 4 5 7 8 4 0 3 7 10 10 8 9 10 8 9 9 9 7 8 14 12 10 7 5 5 7 3 16 8 7 6 3 11 14 5 7
5 5 4 3 3 4 5 5 6 9 5 2 3 4 9 9 8 9 9 8 9 12 9 7 12 7 3 7 7 7 6 4 5 7 7 10 4 4 7 7 7 17 3
4 5 3 3 4 5 5 6 10 9 4 3 4 6 12 12 8 8 9 11 13 6 9 7 6 6 8 6 8 8 8 10 2 13 18 12 10 -2 8 3 8 4 13
4 4 6 5 6 6 6 13 9 3 4 4 9 12 12 9 8 8 12 15 5 11 3 5 8 4 9 6 9 9 10 16 24 15 29 11 24 26 -11 2 8 15 -3
6 5 6 6 5 6 14 8 4 2 6 6 11 12 7 8 9 14 12 8 12 3 8 8 4 11 6 9 1 11 9 10 18 27 22 17 -24 -7 22 1 4 6 -42
6 6 5 4 9 12 7 5 2 3 5 11 14 9 7 9 10 9 13 12 9 9 6 5 9 10 8 4 15 6 19 47 31 32 38 55 33 18 23 22 52 -6 12
6 6 10 5 12 5 7 1 3 7 13 14 9 7 8 11 11 9 6 1 6 8 4 12 10 9 5 11 10 13 19 15 14 12 20 21 16 36 12 -29 17 35 -4
10 9 6 13 4 6 3 5 9 15 14 10 7 9 10 11 7 3 8 7 11 5 12 7 9 6 6 9 3 32 -6 4 25 30 14 26 12 13 35 61 -13 22 -3
9 12 4 3 3 4 8 15 15 13 10 9 13 13 16 12 5 9 4 8 6 10 12 12 12 8 13 12 7 24 -3 -5 28 16 26 49 41 19 15 32 30 -5 -0
8 5 0 5 4 8 14 14 11 9 11 11 8 7 10 8 9 6 10 7 11 12 13 11 9 11 14 6 7 22 5 8 21 25 38 17 26 29 15 35 8 2 24
7 2 0 3 13 12 13 10 8 12 10 5 9 11 8 8 8 8 8 10 11 14 11 10 13 12 8 3 3 30 5 -3 7 -12 9 32 29 19 17 35 9 14 -3
6 2 9 18 12 14 10 9 10 9 8 8 9 8 9 7 10 11 10 13 17 12 14 14 9 13 9 6 7 8 12 18 13 7 3 -4 13 22 6 6 8 6 -6
7 19 11 13 15 11 9 9 10 9 11 9 12 12 11 11 11 14 17 16 15 17 15 9 12 7 9 10 7 5 5 7 9 14 17 16 9 6 11 7 -2 -6 1
10 11 15 13 10 7 9 10 13 10 9 7 9 10 13 13 18 18 18 18 16 11 8 7 7 6 6 8 7 7 6 6 6 6 4 4 4 5 13 12 14 12 10
12 14 12 9 8 10 12 10 7 7 11 12 13 14 15 16 18 17 14 8 9 8 6 8 8 8 8 6 6 6 7 8 9 8 9 8 8 7 7 7 7 6 6
13 10 10 8 14 12 7 8 8 10 11 13 12 13 14 14 12 11 8 10 9 10 8 7 7 7 8 8 7 6 7 7 8 10 8 9 10 10 9 9 10 10 11
11 11 14 15 11 8 9 8 11 10 11 10 10 12 11 10 10 9 9 10 8 6 6 7 8 8 8 8 8 7 8 7 8 10 8 7 6 12 11 10 10 10 7
12 15 14 9 9 9 11 11 9 10 10 10 10 11 9 9 9 9 10 7 5 3 7 8 10 10 8 8 8 8 8 8 8 8 7 7 6 6 10 10 8 8 8
15 10 10 9 12 11 8 7 9 10 11 9 10 10 10 9 9 10 9 7 2 2 7 11 10 10 8 8 9 9 10 9 10 8 7 8 6 5 7 11 12 12 7
11 9 11 11 10 11 10 8 7 8 11 9 8 10 11 12 12 9 7 5 5 6 10 10 10 9 9 9 7 10 10 11 9 9 8 8 9 5 12 12 9 10 12
Height
5883 5883 5882 5882 5882 5881 5879 5878 5876 5875 5872 5871 5868 5866 5864 5862 5859 5856 5854 5851 5848 5845 5843 5841 5839 5836 5834 5832 5831 5829 5826 5825 5823 5821 5820 5818 5817 5816 5814 5813 5812 5811 5811
5878 5879 5878 5877 5877 5876 5875 5873 5871 5870 5868 5865 5862 5860 5858 5856 5853 5850 5847 5844 5841 5838 5836 5834 5832 5830 5827 5825 5823 5821 5819 5817 5816 5814 5812 5811 5810 5808 5807 5806 5806 5805 5805
5874 5874 5874 5872 5871 5870 5869 5867 5866 5864 5862 5860 5856 5854 5852 5849 5846 5843 5840 5837 5834 5831 5829 5827 5824 5822 5819 5816 5815 5813 5811 5810 5808 5806 5804 5802 5801 5800 5799 5798 5798 5798 5798
5869 5868 5867 5866 5865 5865 5863 5861 5860 5859 5856 5853 5850 5847 5845 5842 5839 5835 5832 5828 5825 5822 5820 5817 5815 5812 5810 5807 5806 5804 5802 5800 5798 5796 5795 5793 5792 5792 5791 5791 5791 5791 5791
5862 5862 5861 5859 5859 5858 5857 5856 5854 5852 5849 5846 5844 5841 5838 5835 5832 5828 5824 5819 5816 5814 5810 5808 5805 5803 5800 5798 5796 5794 5792 5790 5788 5786 5785 5783 5782 5781 5781 5781 5781 5782 5783
5855 5855 5855 5853 5852 5852 5850 5849 5847 5845 5843 5840 5837 5834 5831 5827 5824 5820 5817 5813 5809 5805 5802 5799 5796 5793 5790 5788 5786 5784 5781 5780 5778 5775 5773 5773 5772 5771 5771 5771 5772 5772 5773
5849 5849 5848 5847 5846 5845 5843 5841 5839 5837 5834 5832 5831 5827 5824 5820 5815 5811 5808 5804 5801 5797 5793 5790 5787 5784 5781 5778 5775 5772 5770 5768 5766 5764 5762 5760 5760 5760 5760 5760 5760 5762 5762
5841 5841 5841 5840 5839 5837 5835 5833 5830 5828 5827 5823 5821 5818 5817 5813 5806 5802 5798 5795 5791 5788 5784 5781 5777 5774 5771 5767 5764 5760 5758 5755 5752 5750 5749 5749 5747 5747 5748 5748 5749 5749 5751
5834 5834 5833 5832 5830 5829 5827 5824 5821 5819 5818 5816 5811 5807 5806 5804 5800 5795 5790 5786 5782 5778 5775 5771 5767 5764 5760 5756 5753 5748 5744 5740 5737 5735 5733 5731 5734 5732 5734 5735 5735 5736 5738
5826 5826 5825 5824 5822 5820 5818 5815 5813 5811 5809 5806 5802 5798 5794 5792 5789 5787 5782 5777 5773 5770 5766 5762 5758 5754 5749 5745 5741 5735 5730 5726 5720 5718 5718 5717 5712 5712 5719 5721 5717 5721 5725
5817 5817 5816 5815 5813 5811 5808 5806 5803 5801 5798 5795 5792 5789 5785 5781 5778 5775 5772 5769 5765 5760 5756 5752 5748 5743 5739 5734 5729 5723 5716 5710 5704 5700 5698 5698 5699 5693 5698 5701 5700 5705 5709
5806 5807 5806 5805 5803 5800 5798 5796 5794 5791 5788 5785 5782 5779 5776 5772 5768 5764 5762 5758 5755 5751 5745 5741 5736 5732 5728 5723 5717 5710 5701 5693 5688 5683 5678 5677 5679 5679 5681 5687 5686 5692 5696
5797 5797 5796 5795 5794 5792 5790 5787 5784 5781 5777 5775 5772 5768 5765 5762 5758 5755 5752 5749 5746 5742 5735 5729 5726 5721 5717 5712 5706 5698 5689 5685 5680 5673 5668 5663 5661 5663 5666 5669 5670 5678 5683
5788 5787 5786 5785 5784 5782 5780 5777 5773 5770 5767 5764 5761 5757 5754 5751 5749 5746 5743 5739 5736 5731 5726 5720 5716 5712 5708 5703 5696 5688 5681 5676 5669 5661 5653 5646 5645 5650 5653 5657 5661 5666 5669
5778 5777 5776 5775 5774 5772 5769 5766 5763 5760 5758 5754 5751 5748 5745 5742 5739 5735 5732 5728 5725 5722 5718 5712 5709 5704 5699 5694 5687 5680 5675 5669 5662 5654 5644 5634 5634 5638 5645 5649 5652 5657 5660
5768 5767 5766 5764 5762 5760 5757 5755 5753 5750 5747 5744 5741 5738 5735 5732 5729 5725 5722 5718 5715 5711 5708 5704 5700 5696 5691 5686 5679 5673 5669 5663 5657 5649 5639 5632 5630 5633 5637 5643 5648 5649 5649
5757 5757 5756 5753 5751 5748 5746 5744 5742 5740 5736 5734 5730 5728 5725 5722 5719 5715 5711 5708 5704 5701 5698 5695 5691 5688 5684 5679 5673 5666 5662 5658 5652 5647 5640 5634 5632 5631 5634 5638 5640 5642 5643
5745 5745 5744 5743 5740 5738 5737 5734 5732 5729 5727 5724 5721 5718 5715 5712 5708 5704 5701 5697 5694 5691 5689 5686 5683 5680 5677 5672 5666 5661 5656 5652 5647 5642 5639 5635 5633 5630 5630 5631 5632 5635 5637
5735 5734 5733 5732 5731 5728 5726 5725 5723 5719 5717 5715 5712 5708 5705 5702 5698 5694 5691 5687 5684 5682 5680 5678 5675 5673 5668 5665 5661 5656 5651 5647 5643 5638 5634 5632 5629 5628 5628 5629 5629 5629 5629
5724 5724 5724 5722 5720 5718 5717 5715 5713 5710 5707 5705 5702 5698 5696 5692 5689 5685 5682 5679 5676 5675 5673 5671 5668 5665 5661 5658 5654 5650 5646 5642 5638 5634 5631 5628 5626 5624 5623 5622 5622 5621 5621
5713 5712 5713 5713 5711 5709 5707 5705 5703 5701 5698 5696 5693 5690 5687 5683 5680 5678 5675 5673 5670 5668 5666 5663 5660 5657 5654 5650 5647 5643 5639 5636 5632 5629 5625 5623 5620 5618 5617 5615 5614 5612 5611
5703 5703 5702 5703 5703 5700 5699 5697 5694 5692 5690 5688 5684 5683 5678 5675 5673 5671 5669 5666 5664 5661 5658 5656 5653 5650 5646 5643 5639 5635 5631 5628 5624 5620 5617 5614 5612 5609 5607 5605 5603 5601 5599
5694 5695 5695 5694 5693 5691 5690 5689 5687 5684 5682 5679 5677 5674 5671 5669 5666 5664 5661 5659 5656 5654 5651 5648 5645 5642 5638 5634 5630 5626 5622 5618 5615 5612 5608 5604 5602 5599 5596 5594 5591 5589 5586
5685 5686 5687 5685 5685 5683 5683 5682 5679 5677 5674 5672 5670 5667 5664 5661 5659 5656 5654 5651 5649 5647 5644 5640 5637 5633 5629 5624 5620 5617 5613 5609 5605 5602 5598 5594 5591 5588 5585 5581 5577 5574 5572
5677 5678 5678 5677 5677 5677 5675 5674 5672 5669 5666 5665 5661 5659 5657 5654 5651 5649 5647 5644 5641 5638 5635 5631 5627 5623 5619 5615 5610 5607 5603 5599 5595 5591 5587 5582 5579 5575 5572 5567 5563 5559 5556
5669 5671 5670 5670 5670 5669 5668 5665 5663 5661 5659 5656 5654 5652 5650 5647 5644 5641 5639 5636 5633 5629 5625 5621 5617 5613 5609 5606 5601 5597 5592 5588 5584 5579 5575 5570 5565 5562 5556 5552 5547 5543 5539